GEFSMA_con_probscp_312.txt.gz
Probability
3 3 4 5 5 5 6 5 5 5 5 3 3 5 6 6 8 9 9 9 7 6 5 4 4 5 5 3 4 4 4 4 4 3 3 3 3 1 0 0 0 0 0
4 4 4 5 6 8 9 9 7 8 7 5 5 6 7 8 8 9 9 8 6 6 5 4 4 5 5 4 4 4 5 5 5 4 4 4 3 2 0 0 0 0 0
4 4 5 7 9 11 12 11 9 8 9 9 9 9 10 10 10 10 10 8 6 6 7 6 6 7 7 6 5 5 7 8 8 7 6 5 4 2 0 0 0 0 0
4 4 6 9 11 12 11 10 9 8 9 10 11 11 10 10 10 12 12 10 7 6 8 9 10 11 11 9 8 8 8 10 12 12 9 8 6 4 1 1 1 0 0
3 4 7 10 10 10 9 8 8 8 7 8 9 8 8 7 8 11 12 11 9 8 8 10 12 13 14 13 13 12 11 11 15 16 14 13 12 9 6 4 3 2 2
3 4 6 8 7 6 5 6 6 6 7 8 7 6 5 6 7 10 11 11 10 9 9 9 10 12 13 14 14 13 12 13 15 16 17 18 18 16 12 9 6 5 4
3 3 4 5 5 5 5 6 6 7 8 10 9 7 7 7 8 9 10 11 10 9 9 9 10 10 11 12 12 12 13 13 14 15 17 19 19 18 16 13 9 6 5
3 3 4 4 4 6 8 9 9 9 10 11 10 9 9 10 10 10 10 10 9 8 8 9 11 11 11 10 11 12 13 14 15 15 15 16 17 16 16 15 11 8 6
3 4 4 4 6 8 11 12 12 12 12 11 11 10 10 10 10 10 10 10 10 8 7 7 9 12 13 12 12 12 12 13 15 16 16 16 15 14 15 15 13 10 8
4 4 5 6 8 10 12 13 13 12 12 12 12 11 10 10 11 11 12 11 11 9 7 6 7 9 11 13 13 11 9 8 11 13 15 16 14 12 12 13 12 11 11
5 5 6 7 8 10 12 12 11 11 11 12 12 12 11 10 11 11 11 11 11 11 9 7 6 7 8 11 12 10 5 3 4 6 10 13 13 11 10 10 11 11 11
5 6 6 5 5 7 9 10 10 10 11 13 14 14 12 11 11 11 10 9 9 9 9 9 8 8 8 9 10 8 4 1 1 1 3 6 9 10 10 9 9 10 9
5 5 5 5 4 4 5 6 8 10 12 14 15 16 16 14 13 12 10 8 6 7 8 9 9 9 9 9 8 6 4 1 0 0 0 1 4 7 8 8 8 8 8
4 4 5 6 5 4 4 5 6 7 11 13 14 16 18 18 17 15 12 10 7 5 6 8 9 10 10 9 8 7 6 2 0 0 0 0 1 3 5 6 6 7 7
4 5 6 6 6 6 6 5 5 6 10 12 12 13 17 19 19 17 14 13 11 6 5 7 9 9 10 10 9 10 9 5 1 0 0 0 0 1 2 3 4 4 4
6 7 7 7 7 7 7 7 7 8 11 13 13 14 18 20 20 19 17 16 14 10 7 8 9 9 11 12 12 12 12 9 6 2 0 0 0 0 1 2 2 1 1
7 7 7 8 9 10 10 11 11 12 14 16 16 17 19 20 21 21 20 19 18 15 10 8 8 9 12 15 15 14 14 13 11 6 2 1 0 0 1 2 1 0 0
6 6 8 11 13 13 14 16 16 17 18 19 18 19 19 19 19 20 21 20 19 17 13 10 9 9 13 15 16 15 14 15 13 9 4 2 1 0 0 1 1 0 0
8 8 10 13 14 14 16 17 18 20 22 22 20 20 21 20 20 20 20 20 19 17 15 13 12 12 13 14 14 14 14 14 12 10 7 4 2 0 0 0 0 0 0
12 12 12 13 13 13 13 14 17 20 21 22 21 21 21 21 22 22 20 20 20 18 15 14 14 14 15 15 13 12 12 13 12 11 10 8 6 4 2 1 0 0 0
16 15 14 13 12 10 10 10 13 15 18 20 21 21 20 20 21 19 17 18 20 20 17 14 14 15 17 18 15 13 13 13 12 12 13 12 11 10 8 4 1 0 0
18 18 16 15 14 11 10 9 9 12 16 19 22 23 21 19 17 15 13 13 15 18 19 17 15 17 19 20 18 15 15 15 14 15 15 14 14 13 12 8 2 0 0
20 21 20 19 17 15 13 9 8 12 16 20 23 25 23 20 18 17 15 13 14 15 18 20 19 19 21 22 20 18 18 18 18 18 18 17 16 13 12 8 3 0 0
23 23 24 24 22 20 16 10 8 13 18 20 23 25 23 21 19 19 18 17 17 17 17 18 19 18 18 19 19 19 19 18 19 20 20 19 18 16 13 9 3 0 0
24 24 25 25 25 23 18 11 9 15 20 21 21 22 22 20 18 17 18 19 20 20 18 16 15 14 13 12 14 16 17 16 16 19 20 19 18 16 14 9 4 1 0
26 24 24 25 26 24 20 11 9 16 20 20 19 19 20 19 16 14 16 19 20 21 20 16 13 11 10 8 9 13 16 14 14 17 20 19 16 14 11 8 4 2 1

GEFSMA_con_probscp_318.txt.gz
Probability
9 11 14 12 8 7 8 9 9 10 12 12 10 7 5 4 7 9 13 18 21 19 15 11 8 7 7 6 5 6 6 6 6 6 5 4 3 3 2 1 0 0 0
10 11 13 12 9 10 11 11 10 9 10 11 9 8 7 6 8 13 16 19 20 19 15 11 8 7 7 7 7 7 7 7 6 7 7 5 4 3 3 2 1 0 0
11 11 11 10 11 13 15 14 11 9 8 9 9 8 9 10 13 17 19 19 18 16 13 11 10 8 8 8 9 9 8 8 7 8 8 7 5 4 4 3 2 1 0
10 11 11 10 12 14 13 13 12 10 8 7 8 9 11 14 16 18 20 21 19 17 14 13 13 12 10 10 10 10 10 9 9 9 9 9 9 7 5 5 3 1 0
9 11 12 13 13 12 11 12 13 12 10 8 9 11 13 17 19 19 21 23 24 22 18 15 16 17 15 11 11 12 12 11 11 11 11 12 13 11 9 8 7 4 2
8 9 10 12 13 11 11 13 15 14 12 11 12 13 16 18 20 21 23 23 24 24 20 16 17 18 17 13 12 14 15 13 13 13 13 12 14 15 14 13 12 9 6
8 8 8 9 11 12 13 15 16 15 13 13 14 15 16 17 18 21 23 22 20 21 20 18 18 18 16 13 13 14 16 15 14 13 13 11 12 15 17 17 15 13 9
8 8 8 8 10 12 14 16 16 14 13 13 14 15 15 14 14 16 19 18 17 18 19 19 20 19 18 16 13 13 14 16 15 14 13 12 12 13 15 16 16 13 11
8 9 10 9 10 12 13 14 15 13 12 12 12 14 14 13 11 11 13 14 16 17 17 17 18 20 21 20 16 14 14 15 15 14 13 13 13 13 12 13 14 13 10
10 11 13 13 13 13 13 13 14 14 13 11 11 12 14 14 13 12 11 12 14 15 15 14 15 19 22 23 21 19 17 14 13 11 11 13 13 12 11 11 12 11 9
13 14 16 17 17 16 15 15 16 16 16 13 11 12 15 16 16 14 11 10 11 12 11 12 16 20 22 23 24 22 18 13 9 8 9 11 12 11 9 9 10 10 9
16 16 17 19 20 19 18 18 17 18 19 18 16 17 19 19 18 17 14 11 10 11 11 13 18 21 22 22 23 21 17 11 7 5 6 8 9 9 8 8 9 8 7
16 17 19 21 23 21 20 21 21 20 23 25 24 25 25 22 21 22 20 16 13 13 14 16 18 20 21 22 22 19 15 9 4 2 3 5 6 6 7 8 8 7 6
12 16 21 23 24 22 21 23 25 24 27 31 31 31 30 25 22 23 23 20 16 14 13 14 15 17 20 23 22 20 16 8 2 0 0 2 3 3 4 5 7 6 5
13 17 22 24 24 24 24 24 25 26 30 33 33 32 31 28 23 23 24 23 20 14 11 10 11 14 18 20 21 22 20 12 5 2 1 0 1 1 1 2 3 3 2
22 24 25 25 25 26 27 26 24 24 27 31 31 30 31 31 27 24 25 26 23 18 12 10 11 15 18 18 20 23 23 19 11 5 2 1 1 0 0 1 1 0 0
30 30 29 27 27 28 27 26 24 23 25 28 29 28 30 30 28 26 25 25 23 20 15 12 13 17 22 21 21 23 23 21 16 9 4 3 2 1 0 0 0 0 0
31 30 29 28 27 26 26 25 24 23 23 25 25 25 26 27 27 25 24 23 22 20 17 14 15 19 24 25 24 22 21 20 16 11 7 4 3 1 0 0 0 0 0
32 30 29 29 27 25 24 25 25 24 23 22 21 22 24 25 24 23 22 22 22 21 19 17 19 22 25 26 25 22 20 19 15 12 9 6 3 2 1 0 0 0 0
34 33 31 30 28 24 23 25 28 28 25 23 22 22 23 23 23 22 22 23 23 21 20 20 22 23 24 25 25 22 20 18 16 13 11 9 6 4 2 1 0 0 0
32 32 32 31 29 24 21 24 28 29 27 25 23 21 20 20 21 20 20 20 21 21 21 21 21 21 22 24 23 20 19 18 17 15 14 12 10 8 6 3 1 0 0
31 32 33 34 31 25 19 19 23 25 25 24 23 20 19 19 19 18 17 16 16 18 19 20 20 19 20 22 20 18 17 18 17 17 15 13 13 11 11 9 4 1 0
34 35 36 36 33 26 19 16 16 20 22 24 24 22 21 20 20 20 19 17 16 17 18 19 21 22 22 21 19 18 17 17 17 17 15 12 12 13 13 12 6 2 0
38 39 39 37 32 26 20 15 14 17 22 23 24 25 24 23 22 22 22 21 20 20 18 19 21 22 22 20 20 19 18 16 15 16 15 12 12 13 14 13 7 2 0
40 40 39 36 31 25 17 12 12 17 22 23 24 25 24 23 21 20 21 22 23 22 20 19 20 21 19 17 17 18 18 16 13 13 15 16 14 14 16 16 11 4 0
42 40 38 34 30 24 15 10 11 17 21 23 24 23 21 20 18 16 18 22 23 22 20 20 21 20 18 16 15 16 17 15 12 11 14 18 17 16 17 19 14 5 1

GEFSMA_con_probscp_324.txt.gz
Probability
1 2 3 3 3 3 3 3 3 3 3 4 4 4 3 3 3 3 4 6 8 9 9 7 6 7 7 7 7 7 6 6 4 3 1 0 0 0 0 0 0 0 0
2 3 3 3 3 3 3 3 3 3 3 3 3 3 3 3 3 3 4 5 7 9 9 8 7 7 7 7 7 7 6 6 4 3 2 1 0 0 0 0 0 0 0
3 3 3 3 3 3 3 3 3 3 3 3 2 3 3 3 3 4 4 5 7 8 9 10 9 8 6 6 7 7 7 7 6 5 4 2 1 0 0 1 1 1 0
2 2 2 3 3 3 3 3 3 3 3 2 1 2 3 4 4 5 6 6 6 7 8 10 11 9 6 6 6 7 8 8 8 7 6 4 2 2 3 4 4 2 1
2 1 1 3 3 3 3 3 3 3 3 2 1 1 2 4 5 6 6 6 6 6 7 8 10 9 6 6 6 7 9 10 9 8 8 8 6 5 7 9 8 5 3
3 2 1 3 3 3 3 3 3 3 4 3 1 1 2 3 4 4 5 5 6 7 7 7 7 7 6 6 7 8 10 11 10 9 9 9 9 8 10 11 11 9 7
4 3 3 3 3 3 3 3 3 4 4 3 1 1 1 1 1 2 2 3 4 6 7 7 6 5 5 5 7 10 11 11 11 10 9 10 11 11 10 9 9 9 9
4 4 3 3 3 3 3 3 3 3 3 2 1 1 1 1 1 1 1 1 1 3 6 8 7 6 5 5 6 8 9 9 10 11 12 12 12 12 9 7 5 6 7
3 3 3 4 4 4 4 4 3 2 2 2 2 2 2 2 2 2 1 1 0 0 2 5 7 6 6 5 5 6 8 9 9 11 14 14 14 11 8 5 4 5 7
1 1 2 4 5 5 5 4 3 2 2 3 3 3 3 4 4 4 3 2 1 0 0 2 4 5 5 5 5 7 10 10 9 11 13 14 14 11 7 5 5 5 6
0 0 1 3 4 4 4 4 3 4 5 4 4 4 4 5 4 5 4 2 1 0 0 0 1 2 4 5 6 9 11 10 8 9 11 12 12 10 8 6 6 5 5
0 0 1 2 3 3 4 4 5 6 6 6 5 4 5 6 5 4 3 1 0 0 0 0 0 0 2 4 7 9 9 9 7 7 8 9 9 8 8 7 7 6 6
0 0 1 2 3 3 4 5 6 6 6 6 5 5 6 6 6 5 3 1 0 0 0 0 0 0 0 2 5 6 8 7 6 5 5 6 6 6 6 7 7 7 6
1 2 3 4 4 4 5 5 6 5 4 4 4 5 6 6 6 6 4 2 1 1 0 0 0 0 0 0 2 4 6 6 5 3 3 4 4 4 4 5 6 6 6
4 5 6 6 6 6 6 6 6 4 3 3 3 5 5 5 5 6 5 4 4 3 1 0 0 0 0 0 1 2 4 5 5 3 1 1 1 1 1 3 3 3 3
7 8 9 9 10 9 8 7 6 5 3 4 5 5 4 3 4 7 8 8 8 7 4 2 1 0 0 0 0 1 2 4 4 2 0 0 0 0 0 1 1 1 1
9 10 11 12 12 12 10 9 9 8 7 7 7 6 5 5 7 10 11 12 12 11 8 5 3 2 1 1 0 0 2 4 5 3 1 1 0 0 0 0 0 0 0
13 13 12 12 12 12 12 12 13 12 11 10 8 7 7 7 9 11 12 13 14 14 11 7 4 4 4 3 2 1 2 4 5 5 3 2 1 0 0 0 0 0 0
14 13 11 9 8 10 12 14 15 13 11 9 8 7 8 8 9 11 12 13 13 13 11 9 6 6 6 6 4 3 3 4 5 5 6 4 2 1 0 0 0 0 0
11 9 7 5 5 7 11 14 14 13 11 9 8 8 8 9 11 12 12 12 12 11 11 10 8 7 7 6 6 5 5 5 5 6 6 5 4 3 1 1 0 0 0
9 7 5 4 4 7 9 12 13 13 11 10 9 9 9 9 11 12 12 12 11 11 11 10 9 8 7 7 7 8 8 8 8 7 6 6 5 5 4 3 2 1 1
9 9 9 8 8 9 10 11 11 10 10 11 10 9 7 8 8 9 10 10 11 11 10 10 9 9 9 9 9 9 10 10 10 9 7 6 6 6 6 5 5 3 2
10 10 11 11 11 11 10 10 8 6 7 9 10 8 7 6 7 8 8 9 9 9 9 9 9 9 10 10 10 10 9 9 9 9 8 6 6 6 6 6 6 4 3
9 9 9 9 9 9 7 6 5 5 5 6 7 7 6 6 7 7 7 6 6 7 7 8 8 8 9 9 9 9 9 8 8 8 8 7 5 5 6 6 6 4 2
9 8 7 7 6 5 3 2 2 4 4 3 3 4 4 4 4 4 4 4 5 5 6 6 6 7 7 8 8 9 9 9 7 7 7 6 5 5 6 5 4 2 1
10 8 7 6 5 4 2 1 1 2 3 2 2 3 3 3 3 2 2 4 4 4 5 5 5 6 6 7 7 8 10 10 8 6 6 6 5 5 5 3 1 1 0

GEFSMA_con_probscp_330.txt.gz
Probability
0 0 0 0 0 0 0 0 0 0 0 1 3 3 3 3 2 3 4 5 5 6 6 7 8 8 7 7 7 6 4 3 4 4 3 1 1 1 1 0 0 0 0
0 0 0 0 0 0 0 0 0 1 1 2 3 3 3 3 3 3 3 4 3 4 6 7 7 8 8 8 8 7 6 5 4 4 3 2 1 2 1 0 0 0 0
0 0 0 0 0 0 0 0 1 2 3 3 3 3 3 3 3 3 2 2 1 2 4 5 6 7 8 9 9 8 8 8 6 5 4 3 3 3 2 2 1 0 1
0 0 0 0 1 0 0 1 2 3 3 3 3 3 3 3 2 1 1 1 0 0 2 3 3 6 9 10 9 8 8 9 9 7 6 6 6 5 5 4 3 2 2
0 0 0 0 0 0 0 1 2 3 3 3 3 3 3 2 1 0 0 0 0 0 0 1 2 5 8 8 7 7 7 9 10 9 7 7 7 7 7 6 5 4 3
1 1 1 1 1 1 1 1 3 3 3 3 3 2 1 1 1 1 1 1 0 0 0 0 1 3 5 6 6 7 8 8 10 10 8 8 7 8 8 7 6 5 5
2 2 2 2 2 2 2 3 3 3 3 2 1 1 0 1 2 2 2 2 1 0 0 0 1 1 3 4 6 8 10 10 10 10 11 10 9 9 9 8 8 7 6
3 2 3 3 3 3 3 3 3 2 2 1 0 1 1 2 3 3 3 2 1 0 0 0 0 0 1 4 5 6 8 11 12 12 13 13 12 11 11 10 11 9 7
3 2 2 2 2 2 2 2 2 2 2 1 1 2 3 5 5 4 3 2 1 0 0 0 0 0 0 2 3 3 5 8 11 12 13 14 14 13 11 11 11 10 9
2 1 1 1 1 1 1 1 1 2 3 2 2 3 4 6 6 4 2 1 0 0 0 0 0 0 0 0 1 3 4 6 7 8 11 13 13 11 9 9 9 10 10
1 0 0 0 0 0 0 1 3 4 4 4 4 4 6 7 5 3 2 2 1 1 0 0 0 0 0 1 2 3 4 3 2 3 6 9 9 9 8 8 9 10 10
0 1 1 1 0 1 1 2 4 5 5 5 6 6 7 7 5 4 4 3 2 1 0 0 0 0 0 1 2 3 3 2 0 0 1 3 4 6 7 8 8 9 10
1 1 2 2 2 3 3 3 3 4 4 5 5 5 6 5 5 6 6 4 2 1 0 0 1 1 0 0 1 1 2 2 0 0 0 0 1 2 3 5 6 7 9
3 3 4 5 6 7 7 6 6 5 4 3 3 2 3 4 6 8 8 5 3 1 0 0 1 1 1 1 0 1 2 1 0 0 0 0 0 0 0 2 3 5 5
5 6 6 8 10 11 11 11 10 8 5 3 2 2 2 4 7 8 9 8 6 4 2 2 2 2 2 2 2 3 3 1 0 0 0 0 0 0 0 0 1 1 2
7 8 9 11 12 12 12 11 11 9 6 5 4 4 4 6 8 9 10 11 11 8 5 4 4 3 3 2 3 3 3 2 1 0 0 0 0 0 0 0 0 0 0
9 9 10 11 10 9 9 8 8 7 6 6 6 7 7 8 9 10 10 11 13 13 10 7 6 5 4 3 3 3 3 2 2 1 0 0 0 0 0 0 0 0 0
10 9 9 8 7 6 5 5 6 6 7 8 9 9 7 8 9 10 10 10 14 16 14 10 7 6 5 4 4 3 2 3 3 2 1 0 0 0 0 0 0 0 0
12 10 8 6 5 5 4 4 4 6 7 8 10 10 8 8 8 9 9 11 14 15 14 10 7 6 5 5 6 4 3 4 4 3 2 1 0 0 0 0 0 0 0
10 10 9 8 8 7 5 4 4 5 7 8 9 9 8 7 6 6 8 10 12 13 10 8 6 5 5 6 7 7 5 5 6 5 4 2 1 1 1 1 0 0 0
8 9 10 10 9 8 6 5 6 7 8 8 8 7 6 5 4 4 5 7 9 9 8 5 4 4 4 6 7 8 7 7 7 6 5 4 3 3 3 2 1 0 0
8 8 8 9 9 8 6 5 6 8 9 9 8 7 5 4 3 2 2 3 5 6 6 5 5 4 4 5 7 7 7 7 7 7 7 6 4 4 3 2 1 0 0
6 5 5 7 7 6 4 4 5 7 8 8 7 5 4 3 3 2 2 2 3 3 4 6 7 6 5 6 7 7 7 7 8 9 9 7 5 4 3 2 1 1 0
2 2 2 4 5 5 3 2 3 5 5 4 3 2 2 1 1 2 1 2 2 2 2 4 6 6 5 6 7 7 7 7 7 8 9 9 6 4 3 3 2 2 1
1 0 0 2 4 5 3 1 2 3 3 2 1 0 0 0 0 0 1 2 2 1 1 2 3 4 4 4 5 5 6 6 5 5 7 9 7 5 4 4 4 3 2
0 0 0 2 5 6 4 1 1 3 3 1 0 0 0 0 0 0 0 1 2 1 2 2 2 3 3 3 2 4 6 6 4 3 5 8 7 6 5 4 4 3 3

GEFSMA_con_probscp_336.txt.gz
Probability
3 2 1 0 1 1 1 1 3 3 3 3 3 3 3 3 3 3 4 6 10 9 7 6 6 6 5 4 3 4 5 5 4 3 3 4 4 4 4 3 2 1 0
3 3 1 1 2 2 2 2 3 3 3 3 3 3 3 3 3 3 3 5 8 9 7 6 6 6 5 4 3 3 4 4 3 3 3 4 4 5 5 4 3 2 1
3 3 2 2 3 4 4 3 3 2 3 3 3 3 3 3 3 4 4 4 6 8 7 6 6 6 5 4 3 4 4 5 5 5 5 5 6 6 6 5 4 4 3
2 2 2 3 4 5 5 4 2 1 1 2 3 3 3 3 4 4 4 4 5 6 7 6 5 5 5 5 4 5 6 7 8 8 7 8 8 8 7 6 6 5 5
3 3 3 4 6 6 6 4 2 1 1 1 3 3 3 3 3 4 4 4 5 6 6 5 4 5 6 6 5 5 6 8 10 10 10 10 10 9 7 6 6 6 6
3 3 3 4 5 6 5 3 3 3 2 2 2 3 3 4 4 4 4 3 4 4 4 4 4 4 6 6 5 4 4 6 9 11 12 13 12 11 9 7 7 6 6
3 3 3 4 5 5 3 1 2 3 3 2 2 2 2 4 5 5 5 3 2 1 1 2 2 4 6 7 6 4 4 6 9 11 13 15 15 14 12 9 7 6 5
3 3 3 3 4 4 1 1 1 1 2 2 2 2 2 4 5 5 5 3 1 0 0 1 2 4 7 9 8 6 7 8 11 13 14 14 15 15 13 11 10 9 8
3 3 3 4 5 4 2 2 1 2 3 4 4 4 4 4 5 5 4 2 2 2 2 2 3 5 7 9 9 6 6 7 10 13 13 13 13 12 11 12 12 12 11
3 3 4 6 7 6 4 3 3 5 7 8 9 8 6 6 6 6 5 4 3 4 3 4 4 4 6 9 9 7 3 3 5 8 9 10 10 8 8 11 12 12 12
4 4 5 8 9 8 6 5 4 7 9 10 12 12 9 8 8 7 7 7 5 3 3 4 4 3 4 7 8 6 3 1 1 2 3 5 6 5 5 8 10 9 9
5 4 5 7 9 9 8 8 7 7 7 9 12 13 10 9 9 10 10 10 7 3 3 2 1 2 3 5 6 5 3 1 0 0 0 1 2 1 2 4 6 6 5
7 7 8 10 10 10 9 9 9 6 6 8 12 13 11 10 11 12 13 12 7 4 3 1 1 1 3 5 6 4 1 0 0 0 0 0 0 0 0 1 2 3 3
11 12 13 14 13 11 10 10 10 9 9 10 12 14 15 15 15 15 16 13 7 4 3 3 3 4 6 8 9 7 5 2 0 0 0 0 0 0 0 0 0 2 3
14 14 15 15 13 13 13 13 12 12 13 15 16 17 19 20 19 19 19 16 11 6 5 5 7 9 11 12 12 14 12 7 2 0 0 0 0 0 0 0 1 2 2
15 16 15 14 14 16 17 17 15 14 15 17 18 19 20 20 19 20 20 19 16 12 8 8 9 12 14 15 15 16 15 11 5 1 0 0 0 0 0 0 1 1 1
16 17 16 15 17 19 19 19 18 16 15 16 18 20 21 20 19 19 21 22 21 17 12 9 10 12 14 15 16 16 14 12 8 3 1 0 0 0 0 0 0 0 0
17 19 19 18 19 20 21 21 20 17 16 17 19 20 20 21 22 22 23 23 22 19 15 11 10 10 11 13 15 15 12 11 9 6 2 0 0 0 0 0 0 0 0
22 23 23 22 21 20 21 22 21 19 18 19 20 19 18 20 23 24 22 21 20 18 16 12 8 8 9 11 13 13 12 11 10 8 6 3 1 0 0 0 0 0 0
27 27 26 23 22 21 22 22 21 20 20 19 19 18 16 17 20 20 18 17 16 15 13 11 9 8 8 10 12 12 12 11 11 10 10 8 5 4 2 1 0 0 0
27 27 26 23 21 20 20 18 18 19 18 17 17 17 16 16 16 14 12 12 13 12 10 9 9 9 10 12 13 13 12 11 10 11 13 12 11 10 8 5 2 1 0
25 26 25 23 21 18 14 10 10 14 14 13 14 16 16 16 15 12 9 8 9 9 8 7 7 9 11 13 14 14 13 11 10 10 11 12 12 12 12 10 5 1 0
23 24 24 23 20 16 9 3 4 10 12 12 13 15 16 14 13 12 9 8 7 7 6 6 5 6 9 12 14 14 14 13 11 10 10 9 8 9 10 10 6 2 0
19 20 21 20 17 12 6 1 2 8 12 12 13 14 13 11 10 10 10 9 8 5 4 5 4 3 5 7 9 11 13 12 11 10 9 7 5 5 6 6 4 2 1
17 17 17 15 12 9 5 2 3 8 12 12 12 12 10 8 7 6 8 9 7 3 2 2 1 1 1 2 4 6 9 9 8 8 8 6 4 4 4 4 4 2 1
18 17 15 13 11 8 6 3 4 9 13 12 11 10 8 6 4 4 6 7 5 3 2 1 0 0 0 0 1 4 7 7 6 6 6 6 5 4 4 3 3 3 1